Starlink 30825

operational
NORAD ID: 58384 Int'l Des: 2023-178 Owner: SPXS Country: US Constellation: starlink
LEOCIRCULAR

About Starlink 30825

Description loading...

Live Position

Loading 3D Globe...

Upcoming Passes

Altitude History

Altitude vs Time

uPlot chart will show altitude changes over time

Two-Line Element Set

1 58384U 23178L 25351.33440725 -.00003211 00000-0 -96301-4 0 9995
2 58384 53.1630 23.4921 0001283 85.0371 275.0776 15.30205013117280
Epoch: Dec 17, 2025 • Age: 27 hours

Current Status

Altitude 475.3 km
Velocity 7.63 km/s
Sub-Earth Point 8.58°N, 66.75°W
Launch Date Nov 20, 2023
Age 2 years
Type internet

Technical Details

Classification Payload
Mass 730.00 kg
Dry Mass 700.00 kg
Total Mass 730.00 kg
Length 0.30 m
Diameter 4.10 m
Span 29.00 m
Shape Box + pan
Manufacturer SPXS
Bus Type Starlink V2M
Phase Status In Orbit
Owner/State SPXS/US

Large Constellations

Loading constellations...